Time,TemperatureF,DewpointF,PressureIn,WindDirection,WindDirectionDegrees,WindSpeedMPH,WindSpeedGustMPH,Humidity,HourlyPrecipIn,Conditions,Clouds,dailyrainin,SolarRadiationWatts/m^2,SoftwareType,DateUTC
2013-07-08 00:13:00,79.4,66.0,29.92,SSE,163,0.0,5.0,63,0.00,,,0.01,0,weatherlink.com 1.10,2013-07-08 05:13:00,
2013-07-08 00:28:00,78.8,66.0,29.93,SSE,163,0.0,3.0,64,0.00,,,0.01,0,weatherlink.com 1.10,2013-07-08 05:28:00,
2013-07-08 00:43:00,78.3,66.0,29.93,SSE,162,0.0,3.0,65,0.00,,,0.01,0,weatherlink.com 1.10,2013-07-08 05:43:00,
2013-07-08 00:58:00,78.2,66.0,29.93,SSE,161,0.0,1.0,66,0.00,,,0.01,0,weatherlink.com 1.10,2013-07-08 05:58:00,
2013-07-08 01:13:00,77.9,66.0,29.93,SSE,161,0.0,2.0,66,0.00,,,0.01,0,weatherlink.com 1.10,2013-07-08 06:13:00,
2013-07-08 01:28:00,77.8,66.0,29.92,SSE,160,1.0,3.0,67,0.00,,,0.01,0,weatherlink.com 1.10,2013-07-08 06:28:00,
2013-07-08 01:43:00,77.5,66.0,29.92,SE,132,0.0,5.0,67,0.00,,,0.01,0,weatherlink.com 1.10,2013-07-08 06:43:00,
2013-07-08 01:58:00,77.3,66.0,29.92,SSE,156,2.0,3.0,68,0.00,,,0.01,0,weatherlink.com 1.10,2013-07-08 06:58:00,
2013-07-08 02:13:00,77.3,65.0,29.92,South,180,1.0,4.0,67,0.00,,,0.01,0,weatherlink.com 1.10,2013-07-08 07:13:00,
2013-07-08 02:28:00,77.0,65.0,29.92,South,190,1.0,5.0,67,0.00,,,0.00,0,weatherlink.com 1.10,2013-07-08 07:28:00,
2013-07-08 02:43:00,77.2,65.0,29.92,South,180,4.0,5.0,67,0.00,,,0.00,0,weatherlink.com 1.10,2013-07-08 07:43:00,
2013-07-08 02:58:00,77.2,65.0,29.93,South,175,1.0,3.0,67,0.00,,,0.00,0,weatherlink.com 1.10,2013-07-08 07:58:00,
2013-07-08 03:13:00,76.9,65.0,29.93,South,175,0.0,3.0,67,0.00,,,0.00,0,weatherlink.com 1.10,2013-07-08 08:13:00,
2013-07-08 03:28:00,76.7,65.0,29.93,South,175,2.0,3.0,68,0.00,,,0.00,0,weatherlink.com 1.10,2013-07-08 08:28:00,
2013-07-08 03:43:00,76.7,65.0,29.93,South,175,1.0,3.0,68,0.00,,,0.00,0,weatherlink.com 1.10,2013-07-08 08:43:00,
2013-07-08 03:58:00,77.3,65.0,29.93,SSE,168,1.0,5.0,67,0.00,,,0.00,0,weatherlink.com 1.10,2013-07-08 08:58:00,
2013-07-08 04:13:00,77.3,65.0,29.93,SSW,196,3.0,5.0,66,0.00,,,0.00,0,weatherlink.com 1.10,2013-07-08 09:13:00,
2013-07-08 04:28:00,77.0,65.0,29.94,SW,222,1.0,5.0,67,0.00,,,0.00,0,weatherlink.com 1.10,2013-07-08 09:28:00,
2013-07-08 04:43:00,76.9,66.0,29.94,SW,215,1.0,3.0,68,0.00,,,0.00,0,weatherlink.com 1.10,2013-07-08 09:43:00,
2013-07-08 04:58:00,76.4,66.0,29.94,SSW,211,1.0,5.0,69,0.00,,,0.00,0,weatherlink.com 1.10,2013-07-08 09:58:00,
2013-07-08 05:13:00,76.2,66.0,29.94,SSW,200,0.0,4.0,70,0.00,,,0.00,0,weatherlink.com 1.10,2013-07-08 10:13:00,
2013-07-08 05:28:00,76.4,66.0,29.94,SSW,201,0.0,5.0,70,0.00,,,0.00,0,weatherlink.com 1.10,2013-07-08 10:28:00,
2013-07-08 05:43:00,76.1,66.0,29.94,SSW,200,2.0,5.0,71,0.00,,,0.00,0,weatherlink.com 1.10,2013-07-08 10:43:00,
2013-07-08 05:58:00,76.0,66.0,29.94,SSW,199,3.0,4.0,71,0.00,,,0.00,0,weatherlink.com 1.10,2013-07-08 10:58:00,
2013-07-08 06:13:00,76.2,66.0,29.94,SW,217,1.0,5.0,71,0.00,,,0.00,0,weatherlink.com 1.10,2013-07-08 11:13:00,
2013-07-08 06:28:00,76.5,66.0,29.94,SSW,207,0.0,6.0,70,0.00,,,0.00,7,weatherlink.com 1.10,2013-07-08 11:28:00,
2013-07-08 06:43:00,76.5,66.0,29.94,SSW,210,2.0,5.0,70,0.00,,,0.00,18,weatherlink.com 1.10,2013-07-08 11:43:00,
2013-07-08 06:58:00,76.4,66.0,29.94,SSW,202,3.0,5.0,71,0.00,,,0.00,32,weatherlink.com 1.10,2013-07-08 11:58:00,
2013-07-08 07:13:00,76.1,66.0,29.94,SSW,204,2.0,5.0,72,0.00,,,0.00,46,weatherlink.com 1.10,2013-07-08 12:13:00,
2013-07-08 07:28:00,76.6,67.0,29.94,SSW,197,1.0,6.0,72,0.00,,,0.00,83,weatherlink.com 1.10,2013-07-08 12:28:00,
2013-07-08 07:43:00,77.5,67.0,29.94,SSW,209,4.0,8.0,70,0.00,,,0.00,93,weatherlink.com 1.10,2013-07-08 12:43:00,
2013-07-08 07:58:00,77.6,68.0,29.95,South,179,1.0,6.0,71,0.00,,,0.00,98,weatherlink.com 1.10,2013-07-08 12:58:00,
2013-07-08 08:14:00,77.7,68.0,29.95,SSE,166,1.0,4.0,72,0.00,,,0.00,95,weatherlink.com 1.10,2013-07-08 13:14:00,
2013-07-08 08:29:00,78.0,68.0,29.95,South,171,0.0,4.0,72,0.00,,,0.00,155,weatherlink.com 1.10,2013-07-08 13:29:00,
2013-07-08 08:44:00,78.6,69.0,29.95,South,172,0.0,3.0,72,0.00,,,0.00,134,weatherlink.com 1.10,2013-07-08 13:44:00,
2013-07-08 08:59:00,79.2,69.0,29.95,SSW,206,1.0,4.0,71,0.00,,,0.00,204,weatherlink.com 1.10,2013-07-08 13:59:00,
2013-07-08 09:14:00,80.6,69.0,29.95,SSW,202,0.0,4.0,68,0.00,,,0.00,197,weatherlink.com 1.10,2013-07-08 14:14:00,
2013-07-08 09:29:00,81.2,69.0,29.95,WSW,246,1.0,8.0,66,0.00,,,0.00,179,weatherlink.com 1.10,2013-07-08 14:29:00,
2013-07-08 09:44:00,81.0,69.0,29.96,SW,229,5.0,10.0,66,0.00,,,0.00,241,weatherlink.com 1.10,2013-07-08 14:44:00,
2013-07-08 09:59:00,83.6,70.0,29.96,WNW,285,6.0,10.0,64,0.00,,,0.00,336,weatherlink.com 1.10,2013-07-08 14:59:00,
2013-07-08 10:14:00,84.3,70.0,29.96,SSW,192,1.0,9.0,62,0.00,,,0.00,469,weatherlink.com 1.10,2013-07-08 15:14:00,
2013-07-08 10:29:00,85.0,70.0,29.96,SSW,199,6.0,8.0,61,0.00,,,0.00,345,weatherlink.com 1.10,2013-07-08 15:29:00,
2013-07-08 10:44:00,85.6,70.0,29.96,SSE,166,5.0,7.0,60,0.00,,,0.00,417,weatherlink.com 1.10,2013-07-08 15:44:00,
2013-07-08 10:59:00,87.2,70.0,29.96,SSE,165,5.0,11.0,57,0.00,,,0.00,373,weatherlink.com 1.10,2013-07-08 15:59:00,
2013-07-08 11:14:00,87.4,69.0,29.97,SSE,163,3.0,12.0,55,0.00,,,0.00,374,weatherlink.com 1.10,2013-07-08 16:14:00,
2013-07-08 11:29:00,87.0,69.0,29.96,SSW,202,2.0,8.0,56,0.00,,,0.00,327,weatherlink.com 1.10,2013-07-08 16:29:00,
2013-07-08 11:44:00,87.5,69.0,29.97,SSW,204,3.0,16.0,54,0.00,,,0.00,454,weatherlink.com 1.10,2013-07-08 16:44:00,
2013-07-08 11:59:00,88.2,71.0,29.96,SSW,196,3.0,9.0,56,0.00,,,0.00,399,weatherlink.com 1.10,2013-07-08 16:59:00,
2013-07-08 12:14:00,90.6,71.0,29.96,WSW,255,7.0,9.0,53,0.00,,,0.00,846,weatherlink.com 1.10,2013-07-08 17:14:00,
2013-07-08 12:29:00,91.0,72.0,29.96,South,179,2.0,7.0,54,0.00,,,0.00,826,weatherlink.com 1.10,2013-07-08 17:29:00,
2013-07-08 12:44:00,92.0,73.0,29.95,WSW,237,8.0,8.0,54,0.00,,,0.00,823,weatherlink.com 1.10,2013-07-08 17:44:00,
2013-07-08 12:59:00,92.2,73.0,29.95,West,264,4.0,11.0,53,0.00,,,0.00,835,weatherlink.com 1.10,2013-07-08 17:59:00,
2013-07-08 13:14:00,92.7,71.0,29.95,SSW,207,3.0,9.0,50,0.00,,,0.00,872,weatherlink.com 1.10,2013-07-08 18:14:00,
2013-07-08 13:29:00,93.6,72.0,29.94,SSW,196,3.0,10.0,49,0.00,,,0.00,860,weatherlink.com 1.10,2013-07-08 18:29:00,
2013-07-08 13:44:00,92.8,70.0,29.94,SSE,149,5.0,8.0,48,0.00,,,0.00,497,weatherlink.com 1.10,2013-07-08 18:44:00,
2013-07-08 13:59:00,93.1,71.0,29.93,South,175,2.0,9.0,48,0.00,,,0.00,496,weatherlink.com 1.10,2013-07-08 18:59:00,
2013-07-08 14:14:00,93.3,72.0,29.93,ESE,113,1.0,8.0,50,0.00,,,0.00,427,weatherlink.com 1.10,2013-07-08 19:14:00,
2013-07-08 14:29:00,94.2,72.0,29.93,SSW,204,5.0,8.0,49,0.00,,,0.00,888,weatherlink.com 1.10,2013-07-08 19:29:00,
2013-07-08 14:45:00,94.6,71.0,29.92,SW,232,3.0,8.0,46,0.00,,,0.00,863,weatherlink.com 1.10,2013-07-08 19:45:00,
2013-07-08 15:00:00,94.9,70.0,29.92,South,170,2.0,9.0,45,0.00,,,0.00,867,weatherlink.com 1.10,2013-07-08 20:00:00,
2013-07-08 15:30:00,95.6,71.0,29.92,WSW,250,0.0,7.0,45,0.00,,,0.00,791,weatherlink.com 1.10,2013-07-08 20:30:00,
2013-07-08 16:00:00,95.9,71.0,29.92,SSE,156,3.0,10.0,44,0.00,,,0.00,875,weatherlink.com 1.10,2013-07-08 21:00:00,
2013-07-08 16:45:00,95.0,69.0,29.91,SSE,148,2.0,7.0,43,0.00,,,0.00,334,weatherlink.com 1.10,2013-07-08 21:45:00,
2013-07-08 17:00:00,95.5,71.0,29.91,SSW,197,5.0,7.0,45,0.00,,,0.00,448,weatherlink.com 1.10,2013-07-08 22:00:00,
2013-07-08 17:30:00,95.9,69.0,29.90,South,179,2.0,9.0,42,0.00,,,0.00,519,weatherlink.com 1.10,2013-07-08 22:30:00,
2013-07-08 17:45:00,95.8,69.0,29.89,South,180,1.0,7.0,42,0.00,,,0.00,475,weatherlink.com 1.10,2013-07-08 22:45:00,
2013-07-08 18:30:00,93.9,70.0,29.89,SSE,167,1.0,6.0,46,0.00,,,0.00,343,weatherlink.com 1.10,2013-07-08 23:30:00,
2013-07-08 19:00:00,93.2,69.0,29.90,SSE,151,3.0,7.0,46,0.00,,,0.00,251,weatherlink.com 1.10,2013-07-09 00:00:00,
2013-07-08 19:45:00,91.0,70.0,29.89,SSE,156,0.0,5.0,51,0.00,,,0.00,113,weatherlink.com 1.10,2013-07-09 00:45:00,
2013-07-08 20:00:00,89.7,70.0,29.89,SSE,162,0.0,3.0,52,0.00,,,0.00,39,weatherlink.com 1.10,2013-07-09 01:00:00,
2013-07-08 20:15:00,89.2,70.0,29.89,SSE,151,1.0,4.0,53,0.00,,,0.00,26,weatherlink.com 1.10,2013-07-09 01:15:00,
2013-07-08 20:30:00,88.5,70.0,29.90,South,171,0.0,5.0,54,0.00,,,0.00,14,weatherlink.com 1.10,2013-07-09 01:30:00,
2013-07-08 20:45:00,87.7,70.0,29.90,SSE,159,0.0,4.0,55,0.00,,,0.00,0,weatherlink.com 1.10,2013-07-09 01:45:00,
2013-07-08 21:00:00,86.9,69.0,29.90,SSE,157,1.0,4.0,56,0.00,,,0.00,0,weatherlink.com 1.10,2013-07-09 02:00:00,
2013-07-08 21:15:00,86.1,69.0,29.90,SSE,150,1.0,4.0,57,0.00,,,0.00,0,weatherlink.com 1.10,2013-07-09 02:15:00,
2013-07-08 21:45:00,85.0,69.0,29.91,SSE,150,1.0,5.0,59,0.00,,,0.00,0,weatherlink.com 1.10,2013-07-09 02:45:00,
2013-07-08 22:00:00,84.4,69.0,29.92,SSE,151,1.0,5.0,60,0.00,,,0.00,0,weatherlink.com 1.10,2013-07-09 03:00:00,
2013-07-08 22:15:00,84.0,70.0,29.92,SSE,160,2.0,4.0,62,0.00,,,0.00,0,weatherlink.com 1.10,2013-07-09 03:15:00,
2013-07-08 22:30:00,83.8,70.0,29.93,SE,140,0.0,4.0,63,0.00,,,0.00,0,weatherlink.com 1.10,2013-07-09 03:30:00,
2013-07-08 22:45:00,83.7,70.0,29.93,South,183,2.0,6.0,63,0.00,,,0.00,0,weatherlink.com 1.10,2013-07-09 03:45:00,
2013-07-08 23:00:00,83.4,69.0,29.93,South,176,0.0,4.0,63,0.00,,,0.00,0,weatherlink.com 1.10,2013-07-09 04:00:00,
2013-07-08 23:15:00,83.1,70.0,29.92,ESE,118,1.0,6.0,64,0.00,,,0.00,0,weatherlink.com 1.10,2013-07-09 04:15:00,
2013-07-08 23:30:00,82.9,69.0,29.92,SSE,152,0.0,5.0,64,0.00,,,0.00,0,weatherlink.com 1.10,2013-07-09 04:30:00,
2013-07-08 23:45:00,82.4,69.0,29.92,South,172,1.0,6.0,65,0.00,,,0.00,0,weatherlink.com 1.10,2013-07-09 04:45:00,